Weather History for Minneapolis, MN

Change the Weather History Date:

Sunday, September 15, 2013

  Actual Average Record
Temperature  
Mean Temperature 59 °F 62 °F  
Max Temperature 67 °F 72 °F 98 °F (1939)
Min Temperature 50 °F 53 °F 36 °F (1964)
Degree Days  
Heating Degree Days 6 5  
Month to date heating degree days 17 44  
Since 1 July heating degree days 25 63  
Cooling Degree Days 0 2  
Month to date cooling degree days 104 48  
Year to date cooling degree days 953 729  
Growing Degree Days 10 (Base 50)    
Moisture  
Dew Point 54 °F    
Average Humidity 82    
Maximum Humidity 100    
Minimum Humidity 63    
Precipitation  
Precipitation 0.33 in 0.09 in 2.59 in (1992)
Month to date precipitation 0.82 1.59  
Year to date precipitation 27.26 23.76  
Snow  
Snow 0.00 in 0.00 in T in (1916)
Month to date snowfall 0.0 0.0  
Since 1 July snowfall T 0.0  
Since 1 September snowfall 0.0 0.0  
Snow Depth 0.00 in    
Sea Level Pressure  
Sea Level Pressure 30.06 in    
Wind  
Wind Speed 9 mph (NNE)    
Max Wind Speed 21 mph    
Max Gust Speed 28 mph    
Visibility 8 miles    
Events Rain    
T = Trace of Precipitation, MM = Missing Value Source: NWS Daily Summary

Daily Weather History Graph

Daily Weather History Graph

Search for Another Location

Airport:

Trip Planner

Search our weather history database for the weather conditions in past years. The results will help you decide how hot, cold, wet, or windy it might be!

Date:

Astronomy

Sep. 15, 2013 Rise Set
Actual Time 6:51 AM CDT 7:23 PM CDT
Civil Twilight 6:22 AM CDT 7:52 PM CDT
Nautical Twilight 5:47 AM CDT 8:27 PM CDT
Astronomical Twilight 5:11 AM CDT 9:03 PM CDT
Moon 4:58 PM CDT (9/15) 2:21 AM CDT (9/15)
Length of Visible Light 13h 30m
Length of Day
12h 31m
Waxing Gibbous, 82% of the Moon is Illuminated
Sep 15
Waxing Gibbous
Sep 19
Full
Sep 26
Last Quarter
Oct 4
New
Oct 11
First Quarter

Hourly Weather History & Observations

Time (CDT) Temp. Dew Point Humidity Pressure Visibility Wind Dir Wind Speed Gust Speed Precip Events Conditions
12:53 AM 57.0 °F 55.9 °F 96% 29.90 in 10.0 mi SE 6.9 mph - 0.00 in   Overcast
1:53 AM 57.0 °F 55.9 °F 96% 29.89 in 5.0 mi SE 9.2 mph - 0.01 in Rain Light Rain
2:01 AM 57.2 °F 55.4 °F 94% 29.89 in 4.0 mi SE 9.2 mph - 0.01 in Rain Light Rain
2:33 AM 57.2 °F 55.4 °F 94% 29.89 in 5.0 mi SE 6.9 mph - 0.04 in Rain Light Rain
2:53 AM 57.0 °F 55.9 °F 96% 29.89 in 3.0 mi SE 6.9 mph - 0.06 in Rain Rain
3:00 AM 57.2 °F 55.4 °F 94% 29.89 in 2.5 mi SE 3.5 mph - 0.02 in Rain Light Rain
3:07 AM 57.2 °F 55.4 °F 94% 29.89 in 4.0 mi SE 8.1 mph - 0.03 in Rain Light Rain
3:53 AM 57.0 °F 55.9 °F 96% 29.90 in 6.0 mi ENE 4.6 mph - 0.08 in Rain Light Rain
4:28 AM 57.2 °F 55.4 °F 94% 29.91 in 6.0 mi NE 5.8 mph - 0.05 in Rain Light Rain
4:53 AM 57.0 °F 55.9 °F 96% 29.91 in 3.0 mi NNE 5.8 mph - 0.12 in Rain Heavy Rain
4:57 AM 57.2 °F 55.4 °F 94% 29.92 in 3.0 mi NNE 5.8 mph - 0.02 in Rain Rain
4:59 AM 57.2 °F 55.4 °F 94% 29.92 in 2.5 mi NNE 5.8 mph - 0.03 in Rain Rain
5:01 AM 57.2 °F 55.4 °F 94% 29.92 in 3.0 mi NNE 5.8 mph - 0.03 in Rain Rain
5:53 AM 57.0 °F 55.9 °F 96% 29.95 in 10.0 mi NNE 5.8 mph - 0.06 in   Overcast
6:05 AM 57.2 °F 55.4 °F 94% 29.95 in 10.0 mi NE 4.6 mph - N/A   Overcast
6:53 AM 57.9 °F 57.0 °F 97% 29.97 in 10.0 mi North 5.8 mph - N/A   Overcast
7:53 AM 57.9 °F 57.0 °F 97% 29.99 in 10.0 mi North 6.9 mph - N/A   Overcast
8:40 AM 57.2 °F 55.4 °F 94% 30.01 in 10.0 mi North 10.4 mph - N/A   Overcast
8:46 AM 57.2 °F 55.4 °F 94% 30.01 in 10.0 mi North 10.4 mph - N/A   Overcast
8:53 AM 57.9 °F 55.9 °F 93% 30.02 in 10.0 mi North 11.5 mph - N/A   Overcast
9:11 AM 57.2 °F 55.4 °F 94% 30.03 in 10.0 mi North 10.4 mph - N/A   Overcast
9:37 AM 60.8 °F 55.4 °F 82% 30.04 in 10.0 mi NNE 11.5 mph 23.0 mph N/A   Overcast
9:53 AM 61.0 °F 55.9 °F 83% 30.05 in 10.0 mi North 10.4 mph - N/A   Overcast
10:53 AM 62.1 °F 55.0 °F 78% 30.08 in 10.0 mi North 11.5 mph 18.4 mph N/A   Overcast
11:53 AM 62.1 °F 54.0 °F 75% 30.11 in 10.0 mi North 11.5 mph 24.2 mph N/A   Overcast
12:53 PM 62.1 °F 54.0 °F 75% 30.13 in 10.0 mi North 10.4 mph - N/A   Overcast
1:53 PM 63.0 °F 54.0 °F 72% 30.14 in 10.0 mi NNE 11.5 mph - N/A   Overcast
2:53 PM 64.9 °F 55.0 °F 70% 30.16 in 10.0 mi NNW 8.1 mph - N/A   Overcast
3:37 PM 64.4 °F 55.4 °F 73% 30.16 in 10.0 mi NNE 17.3 mph 27.6 mph N/A   Mostly Cloudy
3:51 PM 66.2 °F 53.6 °F 64% 30.17 in 10.0 mi NNE 18.4 mph - N/A   Mostly Cloudy
3:53 PM 66.0 °F 54.0 °F 65% 30.17 in 10.0 mi NNE 17.3 mph - N/A   Mostly Cloudy
4:31 PM 64.4 °F 53.6 °F 68% 30.18 in 10.0 mi North 16.1 mph - N/A   Mostly Cloudy
4:53 PM 64.0 °F 53.1 °F 67% 30.19 in 10.0 mi North 17.3 mph 25.3 mph N/A   Mostly Cloudy
5:03 PM 64.4 °F 53.6 °F 68% 30.20 in 10.0 mi NNE 12.7 mph - N/A   Mostly Cloudy
5:53 PM 64.9 °F 52.0 °F 63% 30.21 in 10.0 mi NNE 10.4 mph 21.9 mph N/A   Scattered Clouds
6:53 PM 61.0 °F 52.0 °F 72% 30.24 in 10.0 mi NNE 12.7 mph - N/A   Scattered Clouds
7:53 PM 59.0 °F 48.9 °F 69% 30.26 in 10.0 mi NNE 10.4 mph 17.3 mph N/A   Partly Cloudy
8:53 PM 57.0 °F 48.0 °F 72% 30.29 in 10.0 mi NE 10.4 mph - N/A   Partly Cloudy
9:53 PM 55.9 °F 46.0 °F 69% 30.30 in 10.0 mi NE 9.2 mph - N/A   Partly Cloudy
10:53 PM 53.1 °F 46.0 °F 77% 30.32 in 10.0 mi NE 6.9 mph - N/A   Clear
11:53 PM 52.0 °F 45.0 °F 77% 30.33 in 10.0 mi NE 5.8 mph - N/A   Clear